Location: Unspecified
(44.0704°N, 88.6889°W)
Time: 05:05:32
(UTC+02:00)

Okean 3 - Visible Passes

Search period start: 24 September 2017 00:00
Search period end: 04 October 2017 00:00
Orbit: 578 x 601 km, 82.5° (Epoch: 23 September)

Date Brightness Start Highest point End Pass type
(mag) Time Alt. Az. Time Alt. Az. Time Alt. Az.
24 Sep 5.6 10:34:15 25° NE 10:34:15 25° NE 10:36:24 10° NNE visible
24 Sep 5.2 12:10:49 18° NW 12:10:49 18° NW 12:13:01 10° NNW visible
25 Sep 5.5 10:42:52 25° NNE 10:42:52 25° NNE 10:44:48 10° NNE visible
25 Sep 5.6 12:19:27 13° NW 12:19:27 13° NW 12:20:31 10° NW visible
26 Sep 5.6 10:51:27 23° N 10:51:27 23° N 10:53:05 10° N visible
27 Sep 5.7 10:59:59 19° N 10:59:59 19° N 11:01:16 10° N visible
28 Sep 5.9 11:08:31 15° N 11:08:31 15° N 11:09:21 10° N visible
29 Sep 6.1 11:17:00 12° NNW 11:17:00 12° NNW 11:17:20 10° NNW visible
